This is the latest recevied weather packets stored in our database for station/object ES0THZ-13. If no packets are shown the sender has not sent any weather packets the latest 10 day(s).
| Time | Temp. | Humidity | Pressure | Rain* | Wind** | Luminosity | Snow |
|---|---|---|---|---|---|---|---|
| 1777701031 | 16.67° C | 63% | 1011.4 hPa | - | - | - | - |
| 1777699986 | 16.11° C | 64% | 1010.9 hPa | - | - | - | - |
| 1777698901 | 15.56° C | 65% | 1011 hPa | - | - | - | - |
| 1777697841 | 15° C | 66% | 1010.6 hPa | - | - | - | - |
| 1777696781 | 13.89° C | 67% | 1010.2 hPa | - | - | - | - |
| 1777695661 | 12.78° C | 67% | 1010.3 hPa | - | - | - | - |
| 1777694511 | 12.22° C | 68% | 1011.2 hPa | - | - | - | - |
| 1777693486 | 11.67° C | 69% | 1011.2 hPa | - | - | - | - |
| 1777692436 | 11.11° C | 69% | 1011 hPa | - | - | - | - |
| 1777691346 | 10.56° C | 70% | 1010.7 hPa | - | - | - | - |
| 1777690276 | 9.44° C | 71% | 1010.7 hPa | - | - | - | - |
| 1777689196 | 10° C | 71% | 1011.7 hPa | - | - | - | - |
| 1777688116 | 10° C | 71% | 1010.4 hPa | - | - | - | - |
| 1777687116 | 10° C | 72% | 1011.1 hPa | - | - | - | - |
| 1777686011 | 10° C | 71% | 1010.8 hPa | - | - | - | - |
| 1777684986 | 10.56° C | 72% | 1011.3 hPa | - | - | - | - |
| 1777683911 | 11.11° C | 72% | 1011.3 hPa | - | - | - | - |
| 1777682856 | 11.11° C | 74% | 1011.2 hPa | - | - | - | - |
| 1777681846 | 10.56° C | 75% | 1010.2 hPa | - | - | - | - |
| 1777680811 | 8.89° C | 76% | 1011.7 hPa | - | - | - | - |
| 1777679671 | 8.33° C | 77% | 1011.9 hPa | - | - | - | - |
| 1777678561 | 7.78° C | 77% | 1011.8 hPa | - | - | - | - |
| 1777677516 | 7.78° C | 77% | 1011.6 hPa | - | - | - | - |
| 1777676486 | 7.78° C | 76% | 1011.9 hPa | - | - | - | - |
| 1777675426 | 8.33° C | 76% | 1012.1 hPa | - | - | - | - |
* Rain since midnight (hover to see other rain measurements)
** Current wind speed in m/s (hover to see current wind gust speed)